Location: Saint-Restitut
(44.3351°N, 4.7915°E)
Time: 02:01:53
(UTC+00:00)

Cosmos 1943 Rocket - Pass Details

Date: 03 February 2023
Orbit: 811 x 844 km, 71.0° (Epoch: 27 March)

Event Time Altitude Azimuth Distance (km) Brightness Sun altitude
Rises 18:53:46 0° 346° (NNW) 3,413 5.5 -21.9°
Reaches altitude 10° 18:58:11 10° 18° (NNE) 2,473 4.4 -22.7°
Enters shadow 18:58:17 10° 18° (NNE) 2,462 4.4 -22.7°
